| time (UTC) | temp F | wind direction | speed MPH | gust MPH | rain 1hr in | rain 24hr in | rain mn in | humidity % | barometer mb |
| 20260507025416 | 26 | 45 | 0.0 | 1.0 | 0.00 | 0.00 | 0.02 | 70 | 1012.0 |
| 20260507024911 | 26 | 45 | 1.0 | 1.0 | 0.00 | 0.00 | 0.02 | 70 | 1012.1 |
| 20260507024406 | 26 | 45 | 0.0 | 3.0 | 0.00 | 0.00 | 0.02 | 70 | 1012.0 |
| 20260507023901 | 26 | 0 | 2.0 | 3.0 | 0.00 | 0.00 | 0.02 | 70 | 1011.9 |
| 20260507023355 | 26 | 0 | 1.0 | 1.0 | 0.00 | 0.00 | 0.02 | 70 | 1011.8 |
| 20260507022850 | 26 | 0 | 0.0 | 2.0 | 0.00 | 0.00 | 0.02 | 69 | 1011.7 |
| 20260507022345 | 26 | 45 | 0.0 | 0.0 | 0.00 | 0.00 | 0.02 | 69 | 1011.7 |
| 20260507021840 | 26 | 45 | 0.0 | 0.0 | 0.00 | 0.00 | 0.02 | 69 | 1011.8 |
| 20260507021335 | 27 | 45 | 0.0 | 0.0 | 0.00 | 0.00 | 0.01 | 69 | 1011.8 |
| 20260507020829 | 27 | 45 | 0.0 | 0.0 | 0.00 | 0.00 | 0.01 | 68 | 1011.8 |
| 20260507020324 | 27 | 45 | 0.0 | 0.0 | 0.00 | 0.00 | 0.01 | 69 | 1011.7 |
| 20260507015819 | 28 | 45 | 0.0 | 0.0 | 0.00 | 0.00 | 0.01 | 68 | 1011.8 |
| 20260507015314 | 28 | 45 | 0.0 | 0.0 | 0.00 | 0.00 | 0.01 | 69 | 1011.8 |
| 20260507014809 | 28 | 45 | 0.0 | 0.0 | 0.00 | 0.00 | 0.01 | 69 | 1011.8 |
| 20260507014303 | 28 | 45 | 0.0 | 2.0 | 0.00 | 0.00 | 0.01 | 69 | 1011.9 |
| 20260507013758 | 28 | 45 | 1.0 | 2.0 | 0.00 | 0.00 | 0.01 | 69 | 1011.7 |
| 20260507013253 | 28 | 9 | 2.0 | 2.0 | 0.00 | 0.00 | 0.01 | 69 | 1011.7 |
| 20260507012748 | 28 | 0 | 1.0 | 2.0 | 0.00 | 0.00 | 0.01 | 69 | 1011.7 |
| 20260507012243 | 28 | 0 | 3.0 | 4.0 | 0.00 | 0.00 | 0.01 | 68 | 1011.9 |
| 20260507011737 | 28 | 45 | 1.0 | 2.0 | 0.00 | 0.00 | 0.01 | 67 | 1011.7 |
| 20260507011232 | 27 | 0 | 1.0 | 2.0 | 0.00 | 0.00 | 0.00 | 67 | 1011.6 |
| 20260507010727 | 27 | 0 | 0.0 | 0.0 | 0.00 | 0.00 | 0.00 | 67 | 1011.6 |
| 20260507010222 | 27 | 45 | 0.0 | 0.0 | 0.00 | 0.00 | 0.00 | 67 | 1011.6 |
| 20260507005717 | 28 | 45 | 0.0 | 0.0 | 0.00 | 0.00 | 0.00 | 66 | 1011.5 |
| 20260507005211 | 28 | 45 | 0.0 | 0.0 | 0.00 | 0.00 | 0.00 | 66 | 1011.5 |
| 20260507004706 | 28 | 45 | 0.0 | 1.0 | 0.00 | 0.00 | 0.00 | 66 | 1011.5 |
| 20260507004201 | 28 | 45 | 0.0 | 2.0 | 0.00 | 0.00 | 0.00 | 66 | 1011.6 |
| 20260507003656 | 28 | 0 | 2.0 | 3.0 | 0.00 | 0.00 | 0.00 | 66 | 1011.5 |
| 20260507003151 | 28 | 0 | 0.0 | 1.0 | 0.00 | 0.00 | 0.00 | 65 | 1011.3 |
| 20260507002645 | 29 | 45 | 0.0 | 0.0 | 0.00 | 0.00 | 0.00 | 66 | 1011.4 |
| 20260507002140 | 29 | 90 | 0.0 | 0.0 | 0.00 | 0.00 | 0.00 | 65 | 1011.4 |
| 20260507001635 | 29 | 90 | 0.0 | 1.0 | 0.00 | 0.00 | 0.00 | 65 | 1011.4 |
| 20260507001130 | 29 | 0 | 1.0 | 2.0 | 0.00 | 0.00 | 0.00 | 64 | 1011.4 |
| 20260507000625 | 29 | 0 | 2.0 | 3.0 | 0.00 | 0.00 | 0.00 | 64 | 1011.3 |
| 20260507000119 | 29 | 45 | 1.0 | 1.0 | 0.00 | 0.00 | 0.00 | 63 | 1011.3 |
| 20260506235614 | 29 | 45 | 0.0 | 0.0 | 0.00 | 0.00 | 0.00 | 63 | 1011.2 |
| 20260506235109 | 29 | 45 | 0.0 | 0.0 | 0.00 | 0.00 | 0.00 | 63 | 1011.3 |
| 20260506234604 | 29 | 0 | 0.0 | 0.0 | 0.00 | 0.00 | 0.00 | 63 | 1011.3 |
| 20260506234059 | 29 | 0 | 0.0 | 0.0 | 0.00 | 0.00 | 0.00 | 63 | 1011.3 |
| 20260506233553 | 29 | 0 | 0.0 | 2.0 | 0.00 | 0.00 | 0.00 | 62 | 1011.2 |
| 20260506233048 | 29 | 45 | 0.0 | 0.0 | 0.00 | 0.00 | 0.00 | 62 | 1011.2 |
| 20260506232543 | 30 | 45 | 0.0 | 0.0 | 0.00 | 0.00 | 0.00 | 61 | 1011.2 |
| 20260506232038 | 30 | 90 | 0.0 | 0.0 | 0.00 | 0.00 | 0.00 | 60 | 1011.3 |
| 20260506231533 | 30 | 90 | 0.0 | 0.0 | 0.00 | 0.00 | 0.00 | 60 | 1011.3 |
| 20260506231027 | 30 | 90 | 0.0 | 0.0 | 0.00 | 0.00 | 0.00 | 59 | 1011.3 |
| 20260506230522 | 31 | 90 | 0.0 | 0.0 | 0.00 | 0.00 | 0.00 | 59 | 1011.2 |
| 20260506230017 | 31 | 90 | 0.0 | 0.0 | 0.00 | 0.00 | 0.00 | 59 | 1011.2 |
| 20260506225512 | 31 | 135 | 0.0 | 0.0 | 0.00 | 0.00 | 0.00 | 58 | 1011.1 |
| 20260506225007 | 31 | 135 | 0.0 | 0.0 | 0.00 | 0.00 | 0.00 | 58 | 1011.1 |
| 20260506224501 | 32 | 0 | 0.0 | 0.0 | 0.00 | 0.00 | 0.00 | 58 | 1011.0 |
| 20260506223956 | 32 | 0 | 2.0 | 2.0 | 0.00 | 0.00 | 0.00 | 57 | 1011.0 |
| 20260506223451 | 32 | 0 | 1.0 | 2.0 | 0.00 | 0.00 | 0.00 | 57 | 1010.9 |
| 20260506222946 | 32 | 0 | 1.0 | 1.0 | 0.00 | 0.00 | 0.00 | 56 | 1010.9 |
| 20260506222441 | 32 | 0 | 1.0 | 1.0 | 0.00 | 0.00 | 0.00 | 56 | 1010.9 |
| 20260506221935 | 32 | 45 | 0.0 | 0.0 | 0.00 | 0.00 | 0.00 | 55 | 1010.8 |
| 20260506221430 | 33 | 45 | 0.0 | 0.0 | 0.00 | 0.00 | 0.00 | 55 | 1010.8 |
| 20260506220925 | 33 | 45 | 0.0 | 0.0 | 0.00 | 0.00 | 0.00 | 55 | 1010.8 |
| 20260506220420 | 33 | 45 | 0.0 | 0.0 | 0.00 | 0.00 | 0.00 | 54 | 1010.7 |
| 20260506215915 | 33 | 45 | 0.0 | 0.0 | 0.00 | 0.00 | 0.00 | 53 | 1010.7 |
| 20260506215409 | 33 | 45 | 0.0 | 0.0 | 0.00 | 0.00 | 0.00 | 53 | 1010.7 |
| 20260506214904 | 33 | 180 | 0.0 | 0.0 | 0.00 | 0.00 | 0.00 | 51 | 1010.6 |
| 20260506214359 | 33 | 180 | 0.0 | 0.0 | 0.00 | 0.00 | 0.00 | 51 | 1010.6 |
| 20260506213854 | 34 | 180 | 0.0 | 0.0 | 0.00 | 0.00 | 0.00 | 51 | 1010.5 |
| 20260506213349 | 34 | 180 | 0.0 | 0.0 | 0.00 | 0.00 | 0.00 | 50 | 1010.5 |
| 20260506212843 | 35 | 180 | 0.0 | 0.0 | 0.00 | 0.00 | 0.00 | 50 | 1010.5 |
| 20260506212338 | 35 | 180 | 0.0 | 1.0 | 0.00 | 0.00 | 0.00 | 49 | 1010.5 |
| 20260506211833 | 35 | 180 | 1.0 | 1.0 | 0.00 | 0.00 | 0.00 | 48 | 1010.4 |
| 20260506211328 | 35 | 180 | 1.0 | 2.0 | 0.00 | 0.00 | 0.00 | 48 | 1010.4 |
| 20260506210823 | 36 | 135 | 0.0 | 0.0 | 0.00 | 0.00 | 0.00 | 47 | 1010.3 |
| 20260506210317 | 36 | 135 | 0.0 | 0.0 | 0.00 | 0.00 | 0.00 | 47 | 1010.2 |
| 20260506205812 | 36 | 135 | 1.0 | 2.0 | 0.00 | 0.00 | 0.00 | 47 | 1010.2 |
| 20260506205307 | 36 | 135 | 2.0 | 2.0 | 0.00 | 0.00 | 0.00 | 46 | 1010.2 |
| 20260506204802 | 36 | 135 | 1.0 | 1.0 | 0.00 | 0.00 | 0.00 | 46 | 1010.1 |
| 20260506204257 | 37 | 135 | 1.0 | 1.0 | 0.00 | 0.00 | 0.00 | 45 | 1010.2 |
| 20260506203751 | 37 | 135 | 1.0 | 1.0 | 0.00 | 0.00 | 0.00 | 44 | 1010.2 |
| 20260506203246 | 37 | 135 | 1.0 | 1.0 | 0.00 | 0.00 | 0.00 | 43 | 1010.1 |
| 20260506202741 | 37 | 135 | 0.0 | 0.0 | 0.00 | 0.00 | 0.00 | 42 | 1010.1 |
| 20260506202236 | 38 | 90 | 0.0 | 0.0 | 0.00 | 0.00 | 0.00 | 41 | 1010.0 |
| 20260506201731 | 38 | 90 | 0.0 | 0.0 | 0.00 | 0.00 | 0.00 | 41 | 1010.2 |
| 20260506201225 | 39 | 90 | 0.0 | 0.0 | 0.00 | 0.00 | 0.00 | 39 | 1010.1 |
| 20260506200720 | 39 | 45 | 0.0 | 0.0 | 0.00 | 0.00 | 0.00 | 38 | 1010.1 |
| 20260506200215 | 39 | 45 | 0.0 | 0.0 | 0.00 | 0.00 | 0.00 | 37 | 1010.1 |
| 20260506195710 | 40 | 90 | 0.0 | 0.0 | 0.00 | 0.00 | 0.00 | 37 | 1010.1 |
| 20260506195205 | 40 | 45 | 0.0 | 1.0 | 0.00 | 0.00 | 0.00 | 36 | 1010.2 |
| 20260506194659 | 40 | 45 | 0.0 | 1.0 | 0.00 | 0.00 | 0.00 | 35 | 1010.0 |
| 20260506194154 | 41 | 45 | 0.0 | 0.0 | 0.00 | 0.00 | 0.00 | 35 | 1010.0 |
| 20260506193649 | 41 | 45 | 0.0 | 0.0 | 0.00 | 0.00 | 0.00 | 34 | 1010.0 |
| 20260506193144 | 42 | 45 | 0.0 | 0.0 | 0.00 | 0.00 | 0.00 | 32 | 1010.0 |
| 20260506192639 | 43 | 67 | 0.0 | 4.0 | 0.00 | 0.00 | 0.00 | 32 | 1010.0 |
| 20260506192133 | 43 | 0 | 1.0 | 2.0 | 0.00 | 0.00 | 0.00 | 32 | 1010.0 |
| 20260506191628 | 44 | 0 | 1.0 | 2.0 | 0.00 | 0.00 | 0.00 | 31 | 1010.0 |
| 20260506191123 | 44 | 0 | 2.0 | 5.0 | 0.00 | 0.00 | 0.17 | 32 | 1009.9 |
| 20260506190618 | 45 | 0 | 4.0 | 4.0 | 0.00 | 0.00 | 0.17 | 32 | 1009.8 |
| 20260506190113 | 46 | 355 | 2.0 | 7.0 | 0.00 | 0.00 | 0.17 | 32 | 1009.8 |
| 20260506185607 | 46 | 310 | 1.0 | 3.0 | 0.00 | 0.00 | 0.17 | 31 | 1009.8 |
| 20260506185102 | 47 | 0 | 1.0 | 3.0 | 0.00 | 0.00 | 0.17 | 30 | 1009.7 |
| 20260506184557 | 47 | 0 | 4.0 | 4.0 | 0.00 | 0.00 | 0.17 | 30 | 1009.5 |
| 20260506184052 | 48 | 45 | 0.0 | 7.0 | 0.00 | 0.00 | 0.17 | 29 | 1009.5 |
| 20260506183547 | 48 | 333 | 4.0 | 9.0 | 0.00 | 0.00 | 0.17 | 29 | 1009.5 |
| 20260506183041 | 49 | 346 | 5.0 | 5.0 | 0.00 | 0.00 | 0.17 | 30 | 1009.5 |
| 20260506182536 | 49 | 319 | 2.0 | 5.0 | 0.00 | 0.00 | 0.17 | 30 | 1009.5 |
| 20260506182031 | 49 | 324 | 3.0 | 4.0 | 0.00 | 0.00 | 0.17 | 29 | 1009.4 |
| 20260506181526 | 50 | 342 | 4.0 | 6.0 | 0.00 | 0.00 | 0.17 | 29 | 1009.5 |
| 20260506181021 | 50 | 90 | 4.0 | 7.0 | 0.00 | 0.00 | 0.17 | 29 | 1009.3 |
| 20260506180515 | 51 | 319 | 4.0 | 6.0 | 0.00 | 0.00 | 0.17 | 26 | 1009.3 |
| 20260506180010 | 51 | 0 | 4.0 | 6.0 | 0.00 | 0.00 | 0.17 | 25 | 1009.4 |
| 20260506175505 | 51 | 288 | 4.0 | 8.0 | 0.00 | 0.00 | 0.17 | 24 | 1009.3 |
| 20260506175000 | 52 | 324 | 1.0 | 7.0 | 0.00 | 0.00 | 0.17 | 21 | 1009.3 |
| 20260506174455 | 53 | 315 | 8.0 | 8.0 | 0.00 | 0.00 | 0.17 | 20 | 1009.2 |
| 20260506173949 | 53 | 31 | 2.0 | 7.0 | 0.00 | 0.00 | 0.17 | 19 | 1009.2 |
| 20260506173444 | 54 | 319 | 2.0 | 8.0 | 0.00 | 0.00 | 0.17 | 17 | 1009.0 |
| 20260506172939 | 54 | 9 | 5.0 | 9.0 | 0.00 | 0.00 | 0.17 | 17 | 1009.2 |
| 20260506172434 | 54 | 355 | 6.0 | 8.0 | 0.00 | 0.00 | 0.17 | 17 | 1009.3 |
| 20260506171929 | 54 | 0 | 3.0 | 3.0 | 0.00 | 0.00 | 0.17 | 16 | 1009.1 |
| 20260506171423 | 54 | 40 | 2.0 | 5.0 | 0.00 | 0.00 | 0.17 | 16 | 1009.1 |
| 20260506170918 | 54 | 324 | 1.0 | 4.0 | 0.00 | 0.00 | 0.17 | 14 | 1009.1 |
| 20260506170413 | 55 | 324 | 2.0 | 8.0 | 0.00 | 0.00 | 0.17 | 15 | 1009.1 |
| 20260506165908 | 55 | 310 | 2.0 | 6.0 | 0.00 | 0.00 | 0.17 | 13 | 1009.1 |
| 20260506165403 | 55 | 324 | 7.0 | 8.0 | 0.00 | 0.00 | 0.17 | 12 | 1009.0 |
| 20260506164857 | 55 | 346 | 4.0 | 9.0 | 0.00 | 0.00 | 0.17 | 13 | 1009.0 |
| 20260506164352 | 55 | 306 | 3.0 | 6.0 | 0.00 | 0.00 | 0.17 | 13 | 1009.1 |
| 20260506163847 | 55 | 270 | 6.0 | 6.0 | 0.00 | 0.00 | 0.17 | 9 | 1009.1 |
| 20260506163342 | 56 | 265 | 10.0 | 10.0 | 0.00 | 0.00 | 0.17 | 10 | 1009.1 |
| 20260506162837 | 56 | 315 | 4.0 | 9.0 | 0.00 | 0.00 | 0.17 | 11 | 1009.1 |
| 20260506162331 | 56 | 342 | 6.0 | 9.0 | 0.00 | 0.00 | 0.17 | 10 | 1009.1 |
| 20260506161826 | 56 | 351 | 4.0 | 7.0 | 0.00 | 0.00 | 0.17 | 11 | 1009.1 |
| 20260506161321 | 56 | 315 | 1.0 | 5.0 | 0.00 | 0.00 | 0.17 | 11 | 1009.1 |
| 20260506160816 | 56 | 351 | 3.0 | 12.0 | 0.00 | 0.00 | 0.17 | 10 | 1009.1 |
| 20260506160311 | 57 | 292 | 9.0 | 14.0 | 0.00 | 0.00 | 0.17 | 10 | 1009.0 |
| 20260506155805 | 57 | 27 | 2.0 | 8.0 | 0.00 | 0.00 | 0.17 | 9 | 1009.0 |
| 20260506155300 | 57 | 288 | 3.0 | 7.0 | 0.00 | 0.00 | 0.17 | 10 | 1008.9 |
| 20260506154755 | 57 | 252 | 4.0 | 9.0 | 0.00 | 0.00 | 0.17 | 8 | 1009.0 |
| 20260506154250 | 57 | 324 | 5.0 | 8.0 | 0.00 | 0.00 | 0.17 | 8 | 1009.0 |
| 20260506153745 | 57 | 328 | 3.0 | 8.0 | 0.00 | 0.00 | 0.17 | 8 | 1009.2 |
| 20260506153239 | 57 | 0 | 1.0 | 9.0 | 0.00 | 0.00 | 0.17 | 9 | 1009.1 |
| 20260506152734 | 57 | 27 | 1.0 | 8.0 | 0.00 | 0.00 | 0.17 | 8 | 1009.1 |
| 20260506152229 | 57 | 236 | 4.0 | 9.0 | 0.00 | 0.00 | 0.17 | 6 | 1009.1 |
| 20260506151724 | 56 | 94 | 1.0 | 10.0 | 0.00 | 0.00 | 0.17 | 7 | 1009.1 |
| 20260506151219 | 57 | 292 | 2.0 | 11.0 | 0.00 | 0.00 | 0.17 | 8 | 1009.2 |
| 20260506150713 | 57 | 270 | 11.0 | 12.0 | 0.00 | 0.00 | 0.17 | 6 | 1009.1 |
| 20260506150208 | 58 | 297 | 6.0 | 13.0 | 0.00 | 0.00 | 0.17 | 3 | 1009.1 |
| 20260506145703 | 58 | 297 | 7.0 | 8.0 | 0.00 | 0.00 | 0.17 | 6 | 1009.1 |
| 20260506145158 | 58 | 297 | 8.0 | 8.0 | 0.00 | 0.00 | 0.17 | 4 | 1009.2 |
| 20260506144653 | 58 | 270 | 7.0 | 12.0 | 0.00 | 0.00 | 0.17 | 5 | 1009.1 |
| 20260506144147 | 58 | 292 | 7.0 | 8.0 | 0.00 | 0.00 | 0.17 | 6 | 1009.2 |
| 20260506143642 | 58 | 288 | 10.0 | 10.0 | 0.00 | 0.00 | 0.17 | 9 | 1009.3 |
| 20260506143137 | 58 | 328 | 4.0 | 9.0 | 0.00 | 0.00 | 0.17 | 10 | 1009.2 |
| 20260506142632 | 57 | 297 | 8.0 | 12.0 | 0.00 | 0.00 | 0.17 | 8 | 1009.2 |
| 20260506142127 | 57 | 306 | 8.0 | 10.0 | 0.00 | 0.00 | 0.17 | 7 | 1009.2 |
| 20260506141621 | 57 | 324 | 6.0 | 13.0 | 0.00 | 0.00 | 0.17 | 5 | 1009.2 |
| 20260506141116 | 57 | 22 | 5.0 | 13.0 | 0.00 | 0.00 | 0.17 | 6 | 1009.3 |
| 20260506140611 | 57 | 351 | 4.0 | 14.0 | 0.00 | 0.00 | 0.17 | 8 | 1009.3 |
| 20260506140106 | 58 | 270 | 5.0 | 16.0 | 0.00 | 0.00 | 0.17 | 7 | 1009.4 |
| 20260506135601 | 58 | 270 | 8.0 | 9.0 | 0.00 | 0.00 | 0.17 | 8 | 1009.3 |
| 20260506135056 | 58 | 306 | 4.0 | 10.0 | 0.00 | 0.00 | 0.17 | 6 | 1009.4 |
| 20260506134550 | 58 | 315 | 4.0 | 8.0 | 0.00 | 0.00 | 0.17 | 8 | 1009.4 |
| 20260506134045 | 58 | 315 | 6.0 | 12.0 | 0.00 | 0.00 | 0.17 | 6 | 1009.4 |
| 20260506133540 | 58 | 0 | 2.0 | 7.0 | 0.00 | 0.00 | 0.17 | 8 | 1009.3 |
| 20260506133035 | 58 | 270 | 10.0 | 10.0 | 0.00 | 0.00 | 0.17 | 9 | 1009.4 |
| 20260506132530 | 58 | 270 | 5.0 | 8.0 | 0.00 | 0.00 | 0.17 | 10 | 1009.4 |
| 20260506132024 | 58 | 319 | 7.0 | 7.0 | 0.00 | 0.00 | 0.17 | 9 | 1009.4 |
| 20260506131519 | 58 | 261 | 8.0 | 13.0 | 0.00 | 0.00 | 0.17 | 10 | 1009.3 |
| 20260506131014 | 58 | 292 | 12.0 | 14.0 | 0.00 | 0.00 | 0.17 | 11 | 1009.3 |
| 20260506130509 | 58 | 306 | 10.0 | 13.0 | 0.00 | 0.00 | 0.17 | 12 | 1009.4 |
| 20260506130004 | 58 | 297 | 5.0 | 9.0 | 0.00 | 0.00 | 0.17 | 9 | 1009.4 |
| 20260506125458 | 57 | 315 | 7.0 | 11.0 | 0.00 | 0.00 | 0.17 | 10 | 1009.4 |
| 20260506124953 | 57 | 337 | 5.0 | 17.0 | 0.00 | 0.00 | 0.17 | 13 | 1009.4 |
| 20260506124448 | 56 | 306 | 6.0 | 15.0 | 0.00 | 0.00 | 0.17 | 15 | 1009.4 |
| 20260506123943 | 56 | 270 | 11.0 | 15.0 | 0.00 | 0.00 | 0.17 | 13 | 1009.4 |
| 20260506123438 | 56 | 265 | 18.0 | 18.0 | 0.00 | 0.00 | 0.17 | 11 | 1009.4 |
| 20260506122932 | 56 | 306 | 5.0 | 14.0 | 0.00 | 0.00 | 0.17 | 11 | 1009.5 |
| 20260506122427 | 56 | 274 | 6.0 | 16.0 | 0.00 | 0.00 | 0.17 | 10 | 1009.5 |
| 20260506121414 | 57 | 319 | 4.0 | 13.0 | 0.00 | 0.00 | 0.17 | 10 | 1009.5 |
| 20260506120909 | 57 | 288 | 7.0 | 14.0 | 0.00 | 0.00 | 0.17 | 8 | 1009.5 |
| 20260506120403 | 57 | 270 | 6.0 | 11.0 | 0.00 | 0.00 | 0.17 | 7 | 1009.5 |
| 20260506115858 | 57 | 283 | 13.0 | 13.0 | 0.00 | 0.00 | 0.17 | 10 | 1009.6 |
| 20260506115353 | 57 | 306 | 4.0 | 9.0 | 0.00 | 0.00 | 0.17 | 11 | 1009.5 |
| 20260506114848 | 57 | 351 | 7.0 | 12.0 | 0.00 | 0.00 | 0.17 | 11 | 1009.5 |
| 20260506114343 | 56 | 297 | 5.0 | 15.0 | 0.00 | 0.00 | 0.17 | 10 | 1009.5 |
| 20260506113837 | 56 | 310 | 4.0 | 17.0 | 0.00 | 0.00 | 0.17 | 10 | 1009.5 |
| 20260506113332 | 57 | 265 | 16.0 | 16.0 | 0.00 | 0.00 | 0.17 | 13 | 1009.5 |
| 20260506112827 | 58 | 270 | 11.0 | 15.0 | 0.00 | 0.00 | 0.17 | 11 | 1009.6 |
| 20260506112322 | 57 | 306 | 7.0 | 10.0 | 0.00 | 0.00 | 0.17 | 12 | 1009.5 |
| 20260506111817 | 57 | 0 | 6.0 | 12.0 | 0.00 | 0.00 | 0.17 | 13 | 1009.5 |
| 20260506111311 | 57 | 288 | 9.0 | 11.0 | 0.00 | 0.00 | 0.17 | 10 | 1009.5 |
| 20260506110806 | 57 | 265 | 10.0 | 11.0 | 0.00 | 0.00 | 0.17 | 12 | 1009.5 |
| 20260506110301 | 57 | 288 | 6.0 | 17.0 | 0.00 | 0.00 | 0.17 | 13 | 1009.5 |
| 20260506105756 | 57 | 261 | 11.0 | 11.0 | 0.00 | 0.00 | 0.17 | 13 | 1009.5 |
| 20260506105251 | 56 | 342 | 6.0 | 7.0 | 0.00 | 0.00 | 0.17 | 12 | 1009.5 |
| 20260506104746 | 56 | 229 | 13.0 | 15.0 | 0.00 | 0.00 | 0.17 | 11 | 1009.5 |
| 20260506104240 | 57 | 270 | 12.0 | 18.0 | 0.00 | 0.00 | 0.17 | 10 | 1009.6 |
| 20260506103735 | 58 | 45 | 3.0 | 14.0 | 0.00 | 0.00 | 0.17 | 10 | 1009.6 |
| 20260506103230 | 58 | 265 | 7.0 | 14.0 | 0.00 | 0.00 | 0.17 | 10 | 1009.6 |
| 20260506102725 | 59 | 225 | 8.0 | 10.0 | 0.00 | 0.00 | 0.17 | 7 | 1009.7 |
| 20260506102220 | 59 | 180 | 7.0 | 11.0 | 0.00 | 0.00 | 0.17 | 6 | 1009.6 |
| 20260506101714 | 61 | 139 | 15.0 | 16.0 | 0.00 | 0.00 | 0.17 | 6 | 1009.5 |
| 20260506101209 | 61 | 135 | 4.0 | 5.0 | 0.00 | 0.00 | 0.17 | 9 | 1009.7 |
| 20260506100704 | 60 | 315 | 5.0 | 9.0 | 0.00 | 0.00 | 0.17 | 7 | 1009.8 |
| 20260506100159 | 59 | 135 | 1.0 | 4.0 | 0.00 | 0.00 | 0.17 | 9 | 1009.8 |
| 20260506095653 | 58 | 153 | 2.0 | 7.0 | 0.00 | 0.00 | 0.17 | 9 | 1009.8 |
| 20260506095148 | 58 | 157 | 3.0 | 8.0 | 0.00 | 0.00 | 0.17 | 10 | 1009.8 |
| 20260506094643 | 58 | 225 | 7.0 | 10.0 | 0.00 | 0.00 | 0.16 | 8 | 1009.9 |
| 20260506094138 | 59 | 144 | 9.0 | 9.0 | 0.00 | 0.00 | 0.16 | 9 | 1009.9 |
| 20260506093633 | 59 | 175 | 4.0 | 10.0 | 0.00 | 0.00 | 0.16 | 10 | 1009.9 |
| 20260506093128 | 58 | 90 | 2.0 | 4.0 | 0.00 | 0.00 | 0.16 | 10 | 1009.9 |
| 20260506092622 | 57 | 45 | 5.0 | 14.0 | 0.00 | 0.00 | 0.16 | 9 | 1009.9 |
| 20260506092117 | 58 | 90 | 9.0 | 9.0 | 0.00 | 0.00 | 0.16 | 12 | 1010.0 |
| 20260506091612 | 58 | 90 | 6.0 | 12.0 | 0.00 | 0.00 | 0.16 | 10 | 1010.0 |
| 20260506091107 | 58 | 135 | 3.0 | 5.0 | 0.00 | 0.00 | 0.16 | 13 | 1009.9 |
| 20260506090602 | 57 | 189 | 2.0 | 5.0 | 0.00 | 0.00 | 0.16 | 12 | 1009.9 |
| 20260506090056 | 57 | 81 | 2.0 | 13.0 | 0.00 | 0.00 | 0.16 | 11 | 1009.9 |
| 20260506085551 | 56 | 0 | 4.0 | 9.0 | 0.00 | 0.00 | 0.16 | 9 | 1009.9 |
| 20260506085046 | 57 | 90 | 2.0 | 11.0 | 0.00 | 0.00 | 0.16 | 11 | 1010.0 |
| 20260506084036 | 56 | 90 | 1.0 | 9.0 | 0.00 | 0.00 | 0.16 | 13 | 1010.0 |
| 20260506083530 | 56 | 135 | 8.0 | 10.0 | 0.00 | 0.00 | 0.16 | 15 | 1010.0 |
| 20260506083025 | 55 | 94 | 7.0 | 9.0 | 0.00 | 0.00 | 0.16 | 19 | 1010.0 |
| 20260506082520 | 55 | 90 | 10.0 | 10.0 | 0.00 | 0.00 | 0.16 | 19 | 1010.0 |
| 20260506082015 | 55 | 108 | 4.0 | 8.0 | 0.00 | 0.00 | 0.16 | 19 | 1010.0 |
| 20260506081510 | 55 | 90 | 6.0 | 14.0 | 0.00 | 0.00 | 0.11 | 19 | 1010.1 |
| 20260506081005 | 55 | 90 | 2.0 | 10.0 | 0.00 | 0.00 | 0.11 | 21 | 1010.1 |
| 20260506080459 | 55 | 135 | 5.0 | 12.0 | 0.00 | 0.00 | 0.11 | 24 | 1010.1 |
| 20260506073428 | 51 | 90 | 12.0 | 12.0 | 0.00 | 0.00 | 0.07 | 30 | 1010.1 |
| 20260506072923 | 51 | 49 | 6.0 | 11.0 | 0.00 | 0.00 | 0.07 | 31 | 1010.1 |
| 20260506072418 | 51 | 90 | 3.0 | 10.0 | 0.00 | 0.00 | 0.07 | 32 | 1010.1 |
| 20260506071912 | 51 | 121 | 9.0 | 12.0 | 0.00 | 0.00 | 0.07 | 32 | 1010.1 |
| 20260506071407 | 51 | 90 | 5.0 | 9.0 | 0.00 | 0.00 | 0.07 | 35 | 1010.2 |
| 20260506070902 | 51 | 135 | 6.0 | 10.0 | 0.00 | 0.00 | 0.07 | 37 | 1010.2 |
| 20260506070357 | 50 | 90 | 4.0 | 6.0 | 0.00 | 0.00 | 0.06 | 41 | 1010.2 |
| 20260506062315 | 48 | 76 | 5.0 | 9.0 | 0.00 | 0.00 | 0.04 | 49 | 1010.4 |
| 20260506061810 | 48 | 90 | 3.0 | 6.0 | 0.00 | 0.00 | 0.04 | 53 | 1010.3 |
| 20260506061305 | 48 | 90 | 1.0 | 3.0 | 0.00 | 0.00 | 0.03 | 56 | 1010.3 |
| 20260506060800 | 47 | 99 | 2.0 | 2.0 | 0.00 | 0.00 | 0.03 | 57 | 1010.3 |
| 20260506060254 | 46 | 45 | 1.0 | 3.0 | 0.00 | 0.00 | 0.03 | 59 | 1010.3 |
| 20260506051203 | 37 | 45 | 2.0 | 2.0 | 0.00 | 0.00 | 0.03 | 75 | 1010.3 |
| 20260506050657 | 36 | 0 | 1.0 | 3.0 | 0.00 | 0.00 | 0.03 | 76 | 1010.3 |
| 20260506050152 | 34 | 0 | 3.0 | 4.0 | 0.00 | 0.00 | 0.02 | 77 | 1010.4 |
| 20260506044636 | 29 | 0 | 1.0 | 2.0 | 0.00 | 0.00 | 0.02 | 76 | 1010.4 |
| 20260506044131 | 27 | 45 | 0.0 | 3.0 | 0.00 | 0.00 | 0.02 | 75 | 1010.3 |
| 20260506043626 | 26 | 45 | 1.0 | 2.0 | 0.00 | 0.00 | 0.02 | 75 | 1010.3 |
| 20260506043121 | 26 | 85 | 1.0 | 3.0 | 0.00 | 0.00 | 0.02 | 75 | 1010.4 |
| 20260506042616 | 26 | 45 | 1.0 | 2.0 | 0.00 | 0.00 | 0.02 | 75 | 1010.4 |
| 20260506042110 | 25 | 45 | 5.0 | 5.0 | 0.00 | 0.00 | 0.02 | 74 | 1010.3 |
| 20260506041605 | 25 | 45 | 1.0 | 2.0 | 0.00 | 0.00 | 0.02 | 75 | 1010.3 |
| 20260506041100 | 25 | 45 | 1.0 | 3.0 | 0.00 | 0.00 | 0.02 | 74 | 1010.3 |
| 20260506040555 | 24 | 45 | 2.0 | 3.0 | 0.00 | 0.00 | 0.02 | 74 | 1010.2 |
| 20260506040050 | 24 | 45 | 1.0 | 1.0 | 0.00 | 0.00 | 0.02 | 74 | 1010.2 |
| 20260506035544 | 24 | 0 | 3.0 | 3.0 | 0.00 | 0.00 | 0.02 | 74 | 1010.2 |
| 20260506035039 | 24 | 45 | 1.0 | 1.0 | 0.00 | 0.00 | 0.02 | 73 | 1010.3 |
| 20260506034534 | 24 | 45 | 1.0 | 2.0 | 0.00 | 0.00 | 0.02 | 74 | 1010.2 |
| 20260506034029 | 24 | 45 | 0.0 | 2.0 | 0.00 | 0.00 | 0.02 | 73 | 1010.2 |
| 20260506033524 | 24 | 45 | 1.0 | 3.0 | 0.00 | 0.00 | 0.02 | 74 | 1010.2 |
| 20260506033018 | 24 | 45 | 1.0 | 3.0 | 0.00 | 0.00 | 0.02 | 73 | 1010.1 |
| 20260506032513 | 24 | 45 | 0.0 | 2.0 | 0.00 | 0.00 | 0.02 | 73 | 1010.2 |
| 20260506032008 | 24 | 0 | 1.0 | 3.0 | 0.00 | 0.00 | 0.02 | 73 | 1010.1 |
| 20260506031503 | 24 | 45 | 2.0 | 2.0 | 0.00 | 0.00 | 0.02 | 72 | 1010.0 |
| 20260506030958 | 24 | 45 | 0.0 | 1.0 | 0.00 | 0.00 | 0.02 | 73 | 1010.0 |
| 20260506030452 | 24 | 45 | 0.0 | 2.0 | 0.00 | 0.00 | 0.02 | 73 | 1010.1 |
| 20260506025947 | 24 | 45 | 1.0 | 3.0 | 0.00 | 0.00 | 0.02 | 71 | 1010.2 |